Location: Sungai Ketit
(2.6833°N, 113.2333°E)
Time: 21:20:17
(UTC+00:00)

Cosmos 972 Rocket - Pass Details

Date: 23 May 2024
Orbit: 713 x 1150 km, 75.8° (Epoch: 19 June)

Event Time Altitude Azimuth Distance (km) Brightness Sun altitude
Rises 10:59:32 0° 192° (SSW) 3,241 7.1 -7.4°
Reaches altitude 10° 11:01:58 10° 193° (SSW) 2,269 6.4 -7.9°
Maximum altitude 11:07:01 82° 280° (W) 731 4.0 -9.1°
Drops below altitude 10° 11:11:52 10° 8° (N) 2,180 6.5 -10.2°
Sets 11:14:09 0° 9° (N) 3,104 7.3 -10.8°
